When you browse on this site, cookies collect data to enhance your experience and personalize the content and advertising you see.
Visit our Privacy Policy to learn more. By continuing to use the site, you agree to this use of cookies and data.
  • en France
  • Liste des pays
  • À 7 jours
  • Température de l'eau
  • Carte satellitaire
  • Carte météo
  • Widgets météo
  • user-avatar
    Se connecter

    Météo par heure à Levyki

    Ce jour, 19 Février, Mardi

    Heure Température Précipitation Vent Pression Humidité
    00:00 -6°C° 0 mm 2 m/s 750 mmHg 87%
    01:00 -7°C° 0 mm 3 m/s 750 mmHg 86%
    02:00 -8°C° 0 mm 2 m/s 750 mmHg 85%
    03:00 -8°C° 0 mm 3 m/s 749 mmHg 85%
    04:00 -8°C° 0 mm 3 m/s 749 mmHg 84%
    05:00 -9°C° 0 mm 4 m/s 748 mmHg 83%
    06:00 -9°C° 0 mm 4 m/s 748 mmHg 83%
    07:00 -9°C° 0 mm 4 m/s 748 mmHg 83%
    08:00 -8°C° 0 mm 4 m/s 747 mmHg 83%
    09:00 -7°C° 0 mm 5 m/s 747 mmHg 81%
    10:00 -5°C° 0 mm 5 m/s 746 mmHg 80%
    11:00 -4°C° 0 mm 5 m/s 746 mmHg 78%
    12:00 -2°C° 0 mm 5 m/s 745 mmHg 80%
    13:00 -2°C° 0 mm 5 m/s 744 mmHg 82%
    14:00 -1°C° 0 mm 5 m/s 744 mmHg 84%
    15:00 -1°C° 0 mm 5 m/s 743 mmHg 85%
    16:00 -2°C° 0 mm 5 m/s 742 mmHg 86%
    17:00 -2°C° 0 mm 5 m/s 742 mmHg 87%
    18:00 -2°C° 0 mm 5 m/s 741 mmHg 88%
    19:00 -2°C° 0 mm 5 m/s 740 mmHg 89%
    20:00 -2°C° 0 mm 5 m/s 740 mmHg 90%
    21:00 -1°C° 0 mm 5 m/s 739 mmHg 91%
    22:00 -1°C° 0 mm 5 m/s 738 mmHg 92%
    23:00 0°C° 0 mm 5 m/s 738 mmHg 94%

    Demain, 20 Février, Mercredi

    Heure Température Précipitation Vent Pression Humidité
    00:00 -1°C° 0 mm 5 m/s 737 mmHg 93%
    01:00 -1°C° 0 mm 5 m/s 737 mmHg 93%
    02:00 -1°C° 0 mm 5 m/s 736 mmHg 92%
    03:00 -1°C° 0.2 mm 5 m/s 736 mmHg 93%
    04:00 -1°C° 0.2 mm 4 m/s 736 mmHg 93%
    05:00 -1°C° 0.2 mm 4 m/s 736 mmHg 94%
    06:00 -1°C° 0 mm 4 m/s 735 mmHg 94%
    07:00 -1°C° 0 mm 4 m/s 735 mmHg 94%
    08:00 -1°C° 0 mm 4 m/s 735 mmHg 94%
    09:00 0°C° 0.1 mm 4 m/s 735 mmHg 95%
    10:00 0°C° 0.1 mm 5 m/s 735 mmHg 95%
    11:00 0°C° 0.1 mm 5 m/s 735 mmHg 96%
    12:00 0°C° 0.1 mm 5 m/s 735 mmHg 95%
    13:00 0°C° 0.1 mm 5 m/s 735 mmHg 94%
    14:00 0°C° 0.1 mm 5 m/s 735 mmHg 93%
    15:00 0°C° 0.1 mm 5 m/s 735 mmHg 92%
    16:00 0°C° 0.1 mm 5 m/s 734 mmHg 90%
    17:00 0°C° 0.1 mm 5 m/s 734 mmHg 89%
    18:00 0°C° 0.4 mm 5 m/s 734 mmHg 89%
    19:00 0°C° 0.4 mm 5 m/s 734 mmHg 90%
    20:00 -1°C° 0.4 mm 6 m/s 734 mmHg 90%
    21:00 -2°C° 0.1 mm 5 m/s 734 mmHg 87%
    22:00 -5°C° 0.1 mm 5 m/s 734 mmHg 85%
    23:00 -6°C° 0.1 mm 5 m/s 734 mmHg 82%

    Après-demain, 21 Février, Jeudi

    Heure Température Précipitation Vent Pression Humidité
    00:00 -6°C° 0.2 mm 6 m/s 735 mmHg 82%
    01:00 -5°C° 0.2 mm 6 m/s 735 mmHg 83%
    02:00 -6°C° 0.2 mm 7 m/s 736 mmHg 83%
    03:00 -6°C° 0.1 mm 7 m/s 736 mmHg 82%
    04:00 -6°C° 0.1 mm 7 m/s 737 mmHg 81%
    05:00 -6°C° 0.1 mm 6 m/s 737 mmHg 80%
    06:00 -6°C° 0.1 mm 6 m/s 737 mmHg 78%
    07:00 -8°C° 0.1 mm 7 m/s 738 mmHg 76%
    08:00 -8°C° 0.1 mm 7 m/s 738 mmHg 74%
    09:00 -8°C° 0.1 mm 7 m/s 739 mmHg 73%
    10:00 -8°C° 0.1 mm 7 m/s 739 mmHg 72%
    11:00 -8°C° 0.1 mm 7 m/s 740 mmHg 71%
    12:00 -8°C° 0 mm 7 m/s 740 mmHg 71%
    13:00 -8°C° 0 mm 7 m/s 741 mmHg 70%
    14:00 -7°C° 0 mm 7 m/s 742 mmHg 70%
    15:00 -8°C° 0 mm 7 m/s 742 mmHg 71%
    16:00 -8°C° 0 mm 6 m/s 743 mmHg 73%
    17:00 -9°C° 0 mm 6 m/s 743 mmHg 74%
    18:00 -9°C° 0 mm 6 m/s 744 mmHg 74%
    19:00 -10°C° 0 mm 6 m/s 745 mmHg 75%
    20:00 -10°C° 0 mm 6 m/s 745 mmHg 75%
    21:00 -11°C° 0 mm 6 m/s 746 mmHg 75%
    22:00 -12°C° 0 mm 5 m/s 746 mmHg 75%
    23:00 -12°C° 0 mm 5 m/s 747 mmHg 75%

    22 Février, Vendredi

    Heure Température Précipitation Vent Pression Humidité
    00:00 -12°C° 0 mm 5 m/s 748 mmHg 75%
    01:00 -13°C° 0 mm 5 m/s 748 mmHg 76%
    02:00 -13°C° 0 mm 5 m/s 749 mmHg 76%
    03:00 -13°C° 0 mm 5 m/s 750 mmHg 76%
    04:00 -14°C° 0 mm 5 m/s 750 mmHg 76%
    05:00 -14°C° 0 mm 5 m/s 751 mmHg 77%
    06:00 -14°C° 0 mm 5 m/s 752 mmHg 76%
    07:00 -14°C° 0 mm 5 m/s 752 mmHg 74%
    08:00 -14°C° 0 mm 5 m/s 753 mmHg 73%
    09:00 -13°C° 0 mm 5 m/s 753 mmHg 72%
    10:00 -12°C° 0 mm 5 m/s 754 mmHg 71%
    11:00 -11°C° 0 mm 5 m/s 754 mmHg 70%
    12:00 -10°C° 0 mm 6 m/s 754 mmHg 67%
    13:00 -10°C° 0 mm 6 m/s 753 mmHg 64%
    14:00 -9°C° 0 mm 6 m/s 753 mmHg 61%
    15:00 -10°C° 0 mm 6 m/s 753 mmHg 65%
    16:00 -10°C° 0 mm 6 m/s 753 mmHg 68%
    17:00 -10°C° 0 mm 5 m/s 753 mmHg 72%
    18:00 -11°C° 0 mm 5 m/s 754 mmHg 73%
    19:00 -11°C° 0 mm 6 m/s 754 mmHg 75%
    20:00 -12°C° 0 mm 6 m/s 755 mmHg 77%
    21:00 -12°C° 0 mm 5 m/s 755 mmHg 76%
    22:00 -13°C° 0 mm 5 m/s 756 mmHg 76%
    23:00 -14°C° 0 mm 5 m/s 756 mmHg 75%

    23 Février, Samedi

    Heure Température Précipitation Vent Pression Humidité
    00:00 -14°C° 0 mm 5 m/s 756 mmHg 76%
    01:00 -14°C° 0 mm 4 m/s 757 mmHg 77%
    02:00 -15°C° 0 mm 4 m/s 757 mmHg 78%
    03:00 -15°C° 0 mm 4 m/s 757 mmHg 80%
    04:00 -15°C° 0 mm 4 m/s 758 mmHg 81%
    05:00 -15°C° 0 mm 4 m/s 758 mmHg 83%
    06:00 -14°C° 0 mm 3 m/s 758 mmHg 83%
    07:00 -14°C° 0 mm 3 m/s 758 mmHg 84%
    08:00 -15°C° 0 mm 3 m/s 758 mmHg 85%
    09:00 -14°C° 0 mm 3 m/s 759 mmHg 82%
    10:00 -13°C° 0 mm 3 m/s 759 mmHg 80%
    11:00 -12°C° 0 mm 3 m/s 759 mmHg 77%
    12:00 -10°C° 0 mm 3 m/s 759 mmHg 74%
    13:00 -10°C° 0 mm 3 m/s 759 mmHg 71%
    14:00 -9°C° 0 mm 3 m/s 758 mmHg 68%
    15:00 -9°C° 0 mm 3 m/s 758 mmHg 71%
    16:00 -10°C° 0 mm 3 m/s 758 mmHg 74%
    17:00 -9°C° 0 mm 2 m/s 758 mmHg 76%
    18:00 -9°C° 0 mm 2 m/s 759 mmHg 78%
    19:00 -9°C° 0 mm 2 m/s 759 mmHg 79%
    20:00 -9°C° 0 mm 2 m/s 759 mmHg 80%
    21:00 -10°C° 0 mm 2 m/s 759 mmHg 82%
    22:00 -9°C° 0 mm 1 m/s 760 mmHg 83%
    23:00 -9°C° 0 mm 1 m/s 760 mmHg 84%

    24 Février, Dimanche

    Heure Température Précipitation Vent Pression Humidité
    00:00 -9°C° 0 mm 1 m/s 760 mmHg 83%
    01:00 -9°C° 0 mm 1 m/s 760 mmHg 83%
    02:00 -9°C° 0 mm 1 m/s 760 mmHg 82%
    03:00 -10°C° 0 mm 1 m/s 760 mmHg 81%
    04:00 -10°C° 0 mm 1 m/s 760 mmHg 80%
    05:00 -10°C° 0 mm 0 m/s 760 mmHg 79%
    06:00 -10°C° 0 mm 1 m/s 760 mmHg 79%
    07:00 -9°C° 0 mm 1 m/s 760 mmHg 78%
    08:00 -9°C° 0 mm 1 m/s 761 mmHg 77%
    09:00 -8°C° 0 mm 1 m/s 761 mmHg 76%
    10:00 -6°C° 0 mm 1 m/s 761 mmHg 75%
    11:00 -4°C° 0 mm 1 m/s 761 mmHg 74%
    12:00 -5°C° 0 mm 2 m/s 761 mmHg 76%
    13:00 -5°C° 0 mm 2 m/s 760 mmHg 78%
    14:00 -4°C° 0 mm 2 m/s 760 mmHg 81%
    15:00 -4°C° 0 mm 2 m/s 760 mmHg 84%
    16:00 -5°C° 0 mm 2 m/s 759 mmHg 88%
    17:00 -5°C° 0 mm 2 m/s 759 mmHg 91%
    18:00 -5°C° 0 mm 2 m/s 759 mmHg 91%
    19:00 -6°C° 0 mm 2 m/s 759 mmHg 92%
    20:00 -6°C° 0 mm 2 m/s 758 mmHg 93%
    21:00 -5°C° 0 mm 2 m/s 758 mmHg 93%
    22:00 -6°C° 0 mm 3 m/s 758 mmHg 93%
    23:00 -6°C° 0 mm 3 m/s 757 mmHg 93%
    Voir plus